Location: Home
(42.5358°N, 72.7383°W)
Time: 23:52:37
(UTC-05:00)

Vanguard 3 - Pass Details

Date: 03 December 2021
Orbit: 508 x 3260 km, 33.3° (Epoch: 21 January)

Event Time Altitude Azimuth Distance (km) Brightness Sun altitude
Rises 00:11:43 0° 183° (S) 6,511 - -68.6°
Reaches altitude 10° 00:18:29 10° 165° (SSE) 5,879 - -68.1°
Maximum altitude 00:28:27 17° 133° (SE) 5,582 - -67.3°
Exits shadow 00:32:17 16° 120° (ESE) 5,691 11.3 -66.9°
Drops below altitude 10° 00:38:41 10° 101° (E) 6,125 11.6 -66.3°
Sets 00:45:49 0° 84° (E) 6,907 12.1 -65.5°
